Tracking 22780 objects as of 11-Apr-2021
HD Live streaming from Space Station
objects crossing your sky now

COSMOS 626

Track COSMOS 626 now!
10-day predictions
COSMOS 626 is classified as:


NORAD ID: 7005
Int'l Code: 1973-108A
Perigee: 918.8 km
Apogee: 985.3 km
Inclination: 65.4 °
Period: 103.9 minutes
Semi major axis: 7323 km
RCS: 3.2756 m2 (large)
Launch date: December 27, 1973
Source: Commonwealth of Independent States (former USSR) (CIS)
Launch site: TYURATAM MISSILE AND SPACE COMPLEX (TTMTR)
aabbcc
Your satellite tracking list
Your tracking list is empty




NASA's NSSDC Master Catalog

Two Line Element Set (TLE):
1  7005U 73108A   21101.11854724 -.00000099  00000-0 -11757-4 0  9993
2  7005  65.4374 247.1680 0045343 146.7439 213.6489 13.85368624392647
Source of the keplerian elements: AFSPC